TimeMST,TemperatureF,Dew PointF,Humidity,Sea Level PressureIn,VisibilityMPH,Wind Direction,Wind SpeedMPH,Gust SpeedMPH,PrecipitationIn,Events,Conditions,WindDirDegrees,DateUTC
12:53 AM,44.1,34.0,68,30.25,10.0,SSW,9.2,-,N/A,,Overcast,210,2013-12-01 07:53:00
1:53 AM,44.1,33.1,65,30.25,10.0,SW,6.9,-,N/A,,Overcast,220,2013-12-01 08:53:00
2:53 AM,39.9,32.0,73,30.25,10.0,SW,10.4,-,0.00,,Mostly Cloudy,230,2013-12-01 09:53:00
3:53 AM,37.0,30.9,79,30.25,10.0,SSW,8.1,-,N/A,,Scattered Clouds,200,2013-12-01 10:53:00
4:53 AM,39.9,33.1,77,30.22,10.0,South,10.4,-,N/A,,Overcast,180,2013-12-01 11:53:00
5:53 AM,42.1,33.1,70,30.21,10.0,South,11.5,-,N/A,,Mostly Cloudy,180,2013-12-01 12:53:00
6:53 AM,43.0,33.1,68,30.22,10.0,South,13.8,-,N/A,,Overcast,190,2013-12-01 13:53:00
7:53 AM,44.1,30.9,60,30.20,10.0,South,12.7,-,N/A,,Overcast,190,2013-12-01 14:53:00
8:53 AM,46.0,32.0,58,30.20,10.0,SSW,13.8,21.9,0.00,,Overcast,210,2013-12-01 15:53:00
9:53 AM,48.9,33.1,54,30.18,10.0,WSW,17.3,23.0,N/A,,Overcast,240,2013-12-01 16:53:00
10:53 AM,51.1,30.0,44,30.16,10.0,South,16.1,-,N/A,,Overcast,190,2013-12-01 17:53:00
11:53 AM,53.1,30.0,41,30.14,10.0,SW,19.6,27.6,0.00,,Overcast,230,2013-12-01 18:53:00
12:53 PM,52.0,36.0,54,30.10,10.0,SW,18.4,-,0.00,Rain,Light Rain,220,2013-12-01 19:53:00
1:53 PM,55.0,34.0,45,30.06,10.0,SW,25.3,32.2,0.00,,Overcast,230,2013-12-01 20:53:00
2:53 PM,57.0,35.1,44,30.04,10.0,SW,21.9,32.2,N/A,,Scattered Clouds,230,2013-12-01 21:53:00
3:53 PM,55.9,33.1,42,30.06,10.0,WSW,21.9,32.2,N/A,,Scattered Clouds,240,2013-12-01 22:53:00
4:53 PM,54.0,33.1,45,30.05,10.0,SW,18.4,-,N/A,,Clear,230,2013-12-01 23:53:00
5:53 PM,54.0,33.1,45,30.03,10.0,SW,19.6,27.6,N/A,,Clear,230,2013-12-02 00:53:00
6:53 PM,53.1,33.1,47,30.01,10.0,SSW,19.6,27.6,N/A,,Partly Cloudy,210,2013-12-02 01:53:00
7:53 PM,55.0,32.0,42,29.98,10.0,SW,20.7,28.8,N/A,,Clear,220,2013-12-02 02:53:00
8:53 PM,54.0,32.0,43,29.95,10.0,SW,24.2,33.4,N/A,,Clear,220,2013-12-02 03:53:00
9:53 PM,55.0,30.9,40,29.94,10.0,WSW,16.1,34.5,N/A,,Clear,240,2013-12-02 04:53:00
10:53 PM,55.0,30.0,38,29.92,10.0,SW,23.0,34.5,N/A,,Clear,230,2013-12-02 05:53:00
11:53 PM,55.0,28.0,35,29.89,10.0,SW,26.5,35.7,N/A,,Clear,230,2013-12-02 06:53:00